Location: *
(45.9500°N, 9.0833°E)
Time: 14:47:50
(UTC+00:00)

deb Explorer IX - Visible Passes

Search period start: 22 June 2021 00:00
Search period end: 02 July 2021 00:00
Orbit: 542 x 1096 km, 38.8° (Epoch: 21 June)

Date Brightness Start Highest point End Pass type
(mag) Time Alt. Az. Time Alt. Az. Time Alt. Az.
27 Jun ? 02:34:40 10° SSW 02:38:14 20° SSE 02:41:31 10° ESE visible
28 Jun ? 02:11:42 14° SSW 02:14:22 21° SSE 02:17:49 10° ESE visible
29 Jun ? 01:48:42 18° S 01:50:30 22° SSE 01:54:07 10° ESE visible
30 Jun ? 01:25:38 22° S 01:26:37 23° SSE 01:30:23 10° ESE visible
01 Jul ? 01:02:33 24° SSE 01:02:42 24° SSE 01:06:40 10° ESE visible
01 Jul ? 02:44:15 10° WSW 02:48:58 35° S 02:53:06 10° ESE visible
